User: anonymous   Login
Location: Unspecified
(0.0000°N, 0.0000°E)
Time: 05:24:50
(UTC+00:00)
Language:

ORS 1 (USA 231) - Orbit

View from above orbital plane
View from above orbital plane
View from above satellite
View from above satellite

Ground track
Ground track

The orbit data is extracted from the following two-line orbital elements,

1 37728U 11029A   17166.80716780 0.00018900  00000-0  16781-3 0    05
2 37728  39.9939 101.9271 0002000 272.7147  87.2846 15.67550547    04
Epoch (UTC): 15 June 2017 19:22:19
Eccentricity: 0.0002000
inclination: 39.9939°
perigee height: 364 km
apogee height: 367 km
right ascension of ascending node: 101.9271°
argument of perigee: 272.7147°
revolutions per day: 15.67550547
mean anomaly at epoch: 87.2846°
orbit number at epoch: 0

The dashed part of the orbit path shows where the satellite is in the earth's shadow,  

DLR